Location: Lombard
(41.8800°N, 88.0080°W)
Time: 22:59:05
(UTC-05:00)

A-11 Canister half - Pass Details

Date: 31 January 2023
Orbit: 1512 x 1687 km, 47.2° (Epoch: 20 March)

Event Time Altitude Azimuth Distance (km) Brightness Sun altitude
Rises 15:32:33 0° 286° (WNW) 4,746 12.1 14.0°
Reaches altitude 10° 15:35:41 10° 289° (WNW) 3,740 11.6 13.5°
Maximum altitude 15:45:05 69° 13° (NNE) 1,610 9.2 12.2°
Drops below altitude 10° 15:54:17 10° 97° (E) 3,668 10.6 10.8°
Sets 15:57:20 0° 100° (E) 4,650 11.1 10.3°
